Location: Blythe
(33.2930°N, 82.2020°W)
Time: 17:57:29
(UTC-05:00)

Hubble Space Telescope - Visible Passes

Search period start: 26 February 2015 00:00
Search period end: 08 March 2015 00:00
Orbit: 543 x 548 km, 28.5° (Epoch: 25 February)

Date Brightness Start Highest point End Pass type
(mag) Time Alt. Az. Time Alt. Az. Time Alt. Az.
26 Feb 3.8 04:23:02 12° ESE 04:23:02 12° ESE 04:23:27 10° ESE visible
26 Feb 1.8 05:58:32 16° SW 06:01:21 38° S 06:05:14 10° ESE visible
27 Feb 3.9 04:15:23 11° ESE 04:15:23 11° ESE 04:15:31 10° ESE visible
27 Feb 1.6 05:50:52 21° SW 05:53:10 41° S 05:57:05 10° ESE visible
28 Feb 1.5 05:43:10 27° SW 05:44:57 42° S 05:48:55 10° ESE visible
01 Mar 1.5 05:35:26 32° SW 05:36:45 43° S 05:40:42 10° ESE visible
02 Mar 1.4 05:27:42 37° SW 05:28:32 42° S 05:32:28 10° ESE visible
03 Mar 1.5 05:19:58 39° SSW 05:20:18 39° S 05:24:13 10° ESE visible
04 Mar 1.7 05:12:16 36° S 05:12:16 36° S 05:15:55 10° ESE visible
05 Mar 2.1 05:04:36 30° S 05:04:36 30° S 05:07:34 10° SE visible
06 Mar 2.5 04:56:58 23° SSE 04:56:58 23° SSE 04:59:09 10° SE visible
07 Mar 3.0 04:49:24 16° SSE 04:49:24 16° SSE 04:50:39 10° SE visible
